Regional Weather Roundup
Issued by NWS

Home | Current Version | Previous Version | Text Only | Print | Product List | Glossary Off
Versions: 1 2 3 4 5 6 7 8 9 10 11 12 13 14 15 16 17 18 19 20 21 22 23 24 25 26 27 28 29 30 31 32 33 34 35 36 37 38 39 40 41 42 43 44 45 46 47 48

000
ASUS43 KDMX 231407
RWRIA

WEATHER ROUNDUP FOR IOWA
NATIONAL WEATHER SERVICE DES MOINES IA
900 AM CDT TUE SEP 23 2014

NOTE: "FAIR" INDICATES FEW OR NO CLOUDS BELOW 12,000 FEET WITH NO
SIGNIFICANT WEATHER AND/OR OBSTRUCTIONS TO VISIBILITY.

* - THESE STATIONS ARE NOT NWS STATIONS...THUS NOT UNDER NWS
QUALITY CONTROL.  THEY ALSO DO NOT REPORT WEATHER SUCH
AS PRECIPITATION OR FOG.

IAZ001>003-012>014-020>022-031>034-043>046-231500-
   NORTHWEST IOWA

CITY           SKY/WX    TMP DP  RH WIND       PRES   REMARKS
CARROLL *      MOSUNNY   55  54  94 SE3       30.23R
CHEROKEE *     LGT RAIN  57  55  94 S7        30.19S
DENISON *      SUNNY     59  54  82 S10       30.19S
LE MARS *      PTSUNNY   57  55  94 SE9G15    30.17S
ORANGE CITY *  LGT RAIN  57  54  88 S5        30.18S
SHELDON *      SUNNY     55  54  94 SE6       30.17S
SIOUX CITY     LGT RAIN  58  56  93 SE7       30.16S
SPENCER        CLOUDY    56  52  86 S7        30.20R
STORM LAKE *   SUNNY     55  55 100 SE8       30.21R
$$

IAZ055>058-069>071-079>083-090>094-231500-
   SOUTHWEST IOWA

CITY           SKY/WX    TMP DP  RH WIND       PRES   REMARKS
ATLANTIC *     SUNNY     59  52  77 S9        30.22S HAZE
AUDUBON *      SUNNY     57  52  82 S5        30.24R
CLARINDA *     SUNNY     57  54  88 SE5       30.24S
COUNCIL BLFS * MOSUNNY   59  57  94 S7        30.20R
CRESTON *      SUNNY     57  52  82 S8        30.26S
HARLAN  *      SUNNY     59  54  82 S8        30.24S
LAMONI         PTSUNNY   57  51  80 S7        30.27S
RED OAK *      SUNNY     59  54  82 SE8       30.21F
SHENANDOAH *   MOSUNNY   59  54  82 SE9       30.20F
$$

IAZ047>049-059>061-072>074-084-231500-
   CENTRAL IOWA

CITY           SKY/WX    TMP DP  RH WIND       PRES   REMARKS
AMES           MOSUNNY   55  53  93 SE5       30.27R
ANKENY *       SUNNY     55  54  94 SE3       30.27S
CHARITON *     SUNNY     55  50  82 S8        30.28R
DES MOINES     CLOUDY    57  50  77 S6        30.27R
GRINNELL*      MOSUNNY   59  50  72 S7        30.29R
KNOXVILLE *    SUNNY     57  50  77 S5        30.27R
MARSHALLTOWN   PTSUNNY   55  50  83 S5        30.28R
PELLA *        PTSUNNY   55  50  82 S3        30.30R
PERRY *          N/A     59  54  82 S9        30.25R
$$

IAZ004>006-015-016-023>025-035-036-231500-
   NORTH CENTRAL IOWA

CITY           SKY/WX    TMP DP  RH WIND       PRES   REMARKS
ALGONA *       SUNNY     57  52  82 S13       30.24R
CLARION *        N/A     59  52  77 S10G16    30.26R
ESTHERVILLE    CLOUDY    53  51  93 S10       30.21R
FORT DODGE *   PTSUNNY   57  50  77 S5        30.25S
MASON CITY     MOSUNNY   54  51  90 S6        30.27R
FOREST CITY *  SUNNY     55  54  94 S5        30.26R
IOWA FALLS *     N/A     55  52  88 S8        30.29R
$$

IAZ007>011-017>019-026>030-037>042-050>054-066-231500-
   NORTHEAST IOWA

CITY           SKY/WX    TMP DP  RH WIND       PRES   REMARKS
CEDAR RAPIDS   SUNNY     56  50  80 SE6       30.30R
CHARLES CITY * SUNNY     55  50  82 S6        30.29R
CLINTON *      SUNNY     55  48  76 S3        30.36R
DECORAH *      SUNNY     57  50  77 S7        30.28S
DUBUQUE        SUNNY     56  50  80 SW5       30.32R
MONTICELLO *   SUNNY     55  50  82 CALM      30.31S
OELWEIN *      SUNNY     57  52  82 S8        30.31R
WATERLOO       SUNNY     55  50  83 SE5       30.28R
$$

IAZ064-065-067-068-078-231500-
   EAST CENTRAL IOWA

CITY           SKY/WX    TMP DP  RH WIND       PRES   REMARKS
DAVENPORT      SUNNY     57  46  66 S7        30.33R
IOWA CITY      SUNNY     54  50  86 SE5       30.32R
MT. PLEASANT * MOSUNNY   59  46  63 SE6       30.32R
MUSCATINE *    SUNNY     54  48  82 CALM      30.33R
QUAD CITIES    SUNNY     58  48  69 CALM      30.32R
$$

IAZ062-063-075>077-085>089-095>099-231500-
   SOUTHEAST IOWA

CITY           SKY/WX    TMP DP  RH WIND       PRES   REMARKS
BURLINGTON     SUNNY     58  48  69 SE5       30.32R
FAIRFIELD *    SUNNY     57  48  72 S6        30.31R
FORT MADISON * SUNNY     61  46  59 CALM      30.32R
KEOKUK *       HAZE      59  50  72 SE5       30.31R VSB 1/4
OSKALOOSA *      N/A     55  52  88 S5        30.30R
CENTERVILLE *  SUNNY     54  52  94 S6        30.31R
OTTUMWA        PTSUNNY   59  50  72 S7        30.29R
WASHINGTON *   SUNNY     57  50  77 S7        30.31R
$$

ABBREVIATIONS USED IN REMARKS
   TC - TEMPERATURES IN CELSIUS
  WCI - WIND CHILL INDEX
   HX - HEAT INDEX
  VSB - VISIBILITY
$$




USA.gov is the U.S. government's official web portal to all federal, state and local government web resources and services.